Bouzas — EAPC — position and weather

sailwx.info

Track history (hours):
 
Tides and Currents Weather Stations Pressure Air Temp Water Temp Dewpoint Dewpoint Depression Visibility Wind Speed Wind Dir Waves Ship Positions

Bouzas

Last reported at 2014-Nov-21 16:33 UTC. Time now 2014-Nov-21 16:39 UTC.
Position N 40°56' E 002°00'.

Length 142 m; draft 5.3 m.

Type: Cargo ship. MMSI: 224029000.

Date/timePositionNaut miles runAvg speedWind from/ knotsBaromVisibWave heightAir tempDewpointWater temp
2014-Nov-21 16:33N 40°56' E 002°00'2618.8
2014-Nov-21 15:11N 41°19' E 002°14'2 0.1
2014-Nov-20 19:27N 41°17' E 002°14'1617.9
2014-Nov-20 18:33N 41°03' E 002°04'1717.5
2014-Nov-20 17:33N 40°47' E 001°53'1717.5
2014-Nov-20 16:34N 40°32' E 001°43'1717.1
2014-Nov-20 15:34N 40°17' E 001°32'1717.3
2014-Nov-20 14:33N 40°01' E 001°22'1717.3
2014-Nov-20 13:33N 39°46' E 001°11'15717.1
2014-Nov-20 04:20N 37°31' W 000°33'1616.6
2014-Nov-20 03:23N 37°21' W 000°48'23416.9
2014-Nov-19 13:33N 35°59' W 005°21'  
2014-Nov-15 17:34N 36°02' W 005°21'22016.9
2014-Nov-15 04:32N 37°14' W 001°03'1918.9
2014-Nov-15 03:33N 37°26' W 000°45'1918.8
2014-Nov-15 02:33N 37°40' W 000°29'1919.0
2014-Nov-15 01:32N 37°55' W 000°15'13218.8
2014-Nov-14 18:33N 39°49' E 001°10'1919.0
2014-Nov-14 17:33N 40°06' E 001°22'1919.0
2014-Nov-14 16:34N 40°22' E 001°34'1918.9
2014-Nov-14 15:33N 40°39' E 001°46'1919.0
2014-Nov-14 14:33N 40°55' E 001°58'23 2.0
2014-Nov-14 03:30N 41°15' E 002°13'1212.1
2014-Nov-14 02:33N 41°05' E 002°05'1212.3
2014-Nov-14 01:33N 40°54' E 001°58'1212.1
2014-Nov-14 00:33N 40°44' E 001°50'1212.2
2014-Nov-13 23:33N 40°33' E 001°43'1212.5
2014-Nov-13 22:33N 40°21' E 001°35'1313.0
2014-Nov-13 21:33N 40°10' E 001°28'1312.8
2014-Nov-13 20:33N 39°59' E 001°20'1313.0
2014-Nov-13 19:33N 39°47' E 001°11'12813.9
2014-Nov-13 10:19N 37°57' W 000°11'1114.2
2014-Nov-13 09:32N 37°47' W 000°19'1414.4
2014-Nov-13 08:34N 37°36' W 000°29'1614.2
2014-Nov-13 07:28N 37°25' W 000°43'23114.3
2014-Nov-12 15:17N 35°60' W 005°11'1317.3
2014-Nov-12 14:33N 35°58' W 005°26'  
Track history (hours):
 
Tides and Currents Weather Stations Pressure Air Temp Water Temp Dewpoint Dewpoint Depression Visibility Wind Speed Wind Dir Waves Ship Positions

Bouzas

Last reported at 2014-Nov-21 16:33 UTC. Time now 2014-Nov-21 16:39 UTC.
Position N 40°56' E 002°00'.

Length 142 m; draft 5.3 m.

Type: Cargo ship. MMSI: 224029000.

Date/timePositionNaut miles runAvg speedWind from/ knotsBaromVisibWave heightAir tempDewpointWater temp
2014-Nov-21 16:33N 40°56' E 002°00'2618.8
2014-Nov-21 15:11N 41°19' E 002°14'2 0.1
2014-Nov-20 19:27N 41°17' E 002°14'1617.9
2014-Nov-20 18:33N 41°03' E 002°04'1717.5
2014-Nov-20 17:33N 40°47' E 001°53'1717.5
2014-Nov-20 16:34N 40°32' E 001°43'1717.1
2014-Nov-20 15:34N 40°17' E 001°32'1717.3
2014-Nov-20 14:33N 40°01' E 001°22'1717.3
2014-Nov-20 13:33N 39°46' E 001°11'15717.1
2014-Nov-20 04:20N 37°31' W 000°33'1616.6
2014-Nov-20 03:23N 37°21' W 000°48'23416.9
2014-Nov-19 13:33N 35°59' W 005°21'  
2014-Nov-15 17:34N 36°02' W 005°21'22016.9
2014-Nov-15 04:32N 37°14' W 001°03'1918.9
2014-Nov-15 03:33N 37°26' W 000°45'1918.8
2014-Nov-15 02:33N 37°40' W 000°29'1919.0
2014-Nov-15 01:32N 37°55' W 000°15'13218.8
2014-Nov-14 18:33N 39°49' E 001°10'1919.0
2014-Nov-14 17:33N 40°06' E 001°22'1919.0
2014-Nov-14 16:34N 40°22' E 001°34'1918.9
2014-Nov-14 15:33N 40°39' E 001°46'1919.0
2014-Nov-14 14:33N 40°55' E 001°58'23 2.0
2014-Nov-14 03:30N 41°15' E 002°13'1212.1
2014-Nov-14 02:33N 41°05' E 002°05'1212.3
2014-Nov-14 01:33N 40°54' E 001°58'1212.1
2014-Nov-14 00:33N 40°44' E 001°50'1212.2
2014-Nov-13 23:33N 40°33' E 001°43'1212.5
2014-Nov-13 22:33N 40°21' E 001°35'1313.0
2014-Nov-13 21:33N 40°10' E 001°28'1312.8
2014-Nov-13 20:33N 39°59' E 001°20'1313.0
2014-Nov-13 19:33N 39°47' E 001°11'12813.9
2014-Nov-13 10:19N 37°57' W 000°11'1114.2
2014-Nov-13 09:32N 37°47' W 000°19'1414.4
2014-Nov-13 08:34N 37°36' W 000°29'1614.2
2014-Nov-13 07:28N 37°25' W 000°43'23114.3
2014-Nov-12 15:17N 35°60' W 005°11'1317.3
2014-Nov-12 14:33N 35°58' W 005°26'  

Dump ship's entire track history